Weather Roundup
Issued by NWS Chicago, IL

Home | Current Version | Previous Version | Text Only | Print | Product List | Glossary On
Versions: 1 2 3 4 5 6 7 8 9 10 11 12 13 14 15 16 17 18 19 20 21 22 23 24 25 26 27 28 29 30 31 32 33 34 35 36 37 38 39 40 41 42 43 44 45 46 47 48 49 50
000
NZUS59 KLOT 180409
HRRLOT

CHICAGO AREA WEATHER ROUNDUP
NATIONAL WEATHER SERVICE CHICAGO/ROMEOVILLE IL
1000 PM CST WED JAN 17 2018

NOTE: "FAIR" INDICATES FEW OR NO CLOUDS BELOW 12,000 FEET WITH NO
SIGNIFICANT WEATHER AND/OR OBSTRUCTIONS TO VISIBILITY.

* THESE STATIONS ARE NOT UNDER NWS QUALITY CONTROL. THEY ALSO MAY NOT
  REPORT WEATHER SUCH AS PRECIPITATION OR FOG.

ILZ005-006-012>014-019>023-180500-
NORTHEAST ILLINOIS

CITY           SKY/WX    TMP DP  RH WIND       PRES   REMARKS
OHARE            N/A     17   8  67 SW15      30.24F WCI   2
MIDWAY           N/A     19  10  68 W21G29    30.27F WCI   3
AURORA           N/A     17   9  70 SW14      30.28F WCI   3
LANSING*         N/A     16  11  80 SW15      30.30S WCI   2
JOLIET*          N/A     18  11  75 SW9       30.31F WCI   7
WAUKEGAN         N/A     18   9  68 SW15G30   30.15F WCI   4
DUPAGE AIRPORT   N/A     16   9  74 SW18G26   30.25F WCI   0
WHEELING         N/A     19   9  65 SW15G23   30.24F WCI   5
KANKAKEE*        N/A     16   9  73 SW17      30.34F WCI   0
MORRIS*          N/A     17   9  72 SW13G20   30.30F WCI   3
LEWIS AIRPORT*   N/A     16  10  77 SW17G24   30.28F WCI   0
NORTHERLY ISL    N/A     19   9  65 W17         N/A  WCI   4
$$

WIZ051-052-058>065-066-070>072-180500-
SOUTHEAST WISCONSIN

CITY           SKY/WX    TMP DP  RH WIND       PRES   REMARKS
MILWAUKEE        N/A     20  10  65 SW23G40   30.10F WCI   3
KENOSHA*       MIX PCPN  17   9  70 W31G39    30.14F WCI  -3
RACINE*        MIX PCPN  18  10  71 W21G40    30.13F WCI   1
BURLINGTON       N/A     18   9  70 SW20G28   30.16F WCI   1
WAUKESHA         N/A     18   9  68 SW17G26   30.12F WCI   2
WEST BEND        N/A     19  10  68 W20G28    30.06S WCI   4
$$

INZ001>003-010>013-019-020-180500-
NORTHWEST INDIANA

CITY           SKY/WX    TMP DP  RH WIND       PRES   REMARKS
GARY*          PTCLDY    18   9  68 SW20G32   30.31S WCI   1
MICHIGAN CITY* NOT AVBL
RENSSELAER*    NOT AVBL
VALPARAISO       N/A     17  10  74 SW18      30.29F WCI   1
$$

LMZ740>746-180500-
SOUTHERN LAKE MICHIGAN

STATION/POSITION TIME  SKY/WX   TEMP WIND        PRES    VSBY
                                AIR  DIR/SP/G
                 (UTC)          (F)  (DEG/KT/KT) (MB)    (MI)
HARRISON CRIB    0340            21  230/ 17/ 21   N/A
BURNHAM HARBOR   0400            19  220/ 13/ 21   N/A
CALUMET HARBOR   0342            17  220/ 10/ 20 1024.0F
BURNS HARBOR     0340            17  220/ 16/ 24 1026.1F
MICHIGAN CITY    0340            17  200/ 19/ 21   N/A
$$

ABBREVIATIONS USED IN REMARKS
   TC - TEMPERATURE IN CELSIUS
  WCI - WIND CHILL INDEX
   HX - HEAT INDEX
  VSB - VISIBILITY
$$




USA.gov is the U.S. government's official web portal to all federal, state and local government web resources and services.